Simultaneous Nadir Overpasses (SNOs) Predictions

Prediction of SNOs between FY3D and NOAA-20 Satellite Orbit:

Table of predicted SNOs for the next 14.0 days since TLE Epoch: 2/17/2024
Index Date (FY3D) Time (FY3D) Lat,Lon (FY3D) SZA (FY3D ) Date (NOAA-20) Time (NOAA-20) Lat,Lon (NOAA-20) SZA (NOAA-20 ) Distance(km) Time Diff (sec)
1 02/23/2024 05:45:27 -81.10,-146.60 84.06 02/23/2024 05:46:29 -81.05,-141.30 84.84 91.64 62
2 02/23/2024 07:26:51 -81.14,-169.29 84.43 02/23/2024 07:28:06 -81.14,-169.33 84.47 0.55 75
3 02/23/2024 08:17:36 81.14, -2.00 95.56 02/23/2024 08:18:51 81.14, -1.99 95.52 0.18 75
4 02/23/2024 09:08:22 -81.14, 165.33 84.46 02/23/2024 09:09:36 -81.14, 165.26 84.49 1.17 74
5 02/23/2024 09:59:07 81.14, -27.38 95.54 02/23/2024 10:00:21 81.14, -27.40 95.50 0.46 74
6 02/23/2024 10:49:53 -81.14, 139.95 84.49 02/23/2024 10:51:06 -81.14, 139.85 84.51 1.79 73
7 02/23/2024 11:40:38 81.14, -52.75 95.51 02/23/2024 11:41:51 81.14, -52.82 95.48 1.10 73
8 02/23/2024 12:31:24 -81.14, 114.57 84.51 02/23/2024 12:32:36 -81.14, 114.43 84.53 2.41 72
9 02/23/2024 13:22:09 81.14, -78.13 95.48 02/23/2024 13:23:21 81.14, -78.23 95.46 1.74 72
10 02/23/2024 14:12:55 -81.14, 89.19 84.54 02/23/2024 14:14:06 -81.14, 89.02 84.55 3.03 71
11 02/23/2024 15:03:40 81.14,-103.51 95.46 02/23/2024 15:04:51 81.14,-103.65 95.44 2.37 71
12 02/23/2024 15:54:26 -81.14, 63.82 84.56 02/23/2024 15:55:35 -81.13, 63.98 84.63 2.94 69
13 02/23/2024 16:45:11 81.14,-128.89 95.43 02/23/2024 16:46:21 81.14,-129.06 95.42 3.01 70
14 02/23/2024 17:35:57 -81.14, 38.44 84.59 02/23/2024 17:37:05 -81.13, 38.57 84.65 2.32 68
15 02/23/2024 18:26:42 81.14,-154.27 95.41 02/23/2024 18:27:50 81.13,-154.10 95.34 2.97 68
16 02/23/2024 19:17:28 -81.14, 13.06 84.62 02/23/2024 19:18:35 -81.13, 13.16 84.67 1.70 67
17 02/23/2024 20:08:13 81.14,-179.64 95.38 02/23/2024 20:09:20 81.13,-179.51 95.32 2.33 67
18 02/23/2024 20:58:59 -81.14, -12.32 84.64 02/23/2024 21:00:05 -81.13, -12.26 84.69 1.08 66
19 02/23/2024 21:49:44 81.14, 154.98 95.35 02/23/2024 21:50:50 81.13, 155.08 95.30 1.70 66
20 02/23/2024 22:40:30 -81.14, -37.70 84.67 02/23/2024 22:41:35 -81.14, -37.67 84.71 0.46 65
21 02/23/2024 23:31:15 81.14, 129.60 95.33 02/23/2024 23:32:20 81.14, 129.66 95.28 1.06 65
22 02/24/2024 00:22:01 -81.14, -63.08 84.69 02/24/2024 00:23:05 -81.14, -63.08 84.73 0.17 64
23 02/24/2024 01:12:46 81.14, 104.22 95.30 02/24/2024 01:13:50 81.14, 104.25 95.26 0.43 64
24 02/24/2024 02:03:32 -81.14, -88.45 84.72 02/24/2024 02:04:35 -81.14, -88.50 84.75 0.78 63
25 02/24/2024 02:54:17 81.14, 78.84 95.27 02/24/2024 02:55:20 81.14, 78.83 95.24 0.26 63
26 02/24/2024 03:45:03 -81.14,-113.83 84.75 02/24/2024 03:46:05 -81.14,-113.91 84.77 1.40 62
27 02/24/2024 04:35:48 81.14, 53.46 95.25 02/24/2024 04:36:50 81.14, 53.42 95.22 0.87 62
28 02/24/2024 05:26:34 -81.14,-139.21 84.77 02/24/2024 05:27:35 -81.14,-139.33 84.79 2.01 61
29 02/24/2024 06:17:19 81.14, 28.09 95.22 02/24/2024 06:18:20 81.14, 28.00 95.20 1.50 61
30 02/24/2024 07:08:05 -81.14,-164.59 84.80 02/24/2024 07:09:05 -81.14,-164.74 84.81 2.63 60
31 02/24/2024 07:58:50 81.14, 2.71 95.20 02/24/2024 07:59:50 81.14, 2.59 95.18 2.14 60
32 02/24/2024 08:49:36 -81.14, 170.03 84.82 02/24/2024 08:50:35 -81.14, 169.85 84.83 3.25 59
33 02/24/2024 09:40:21 81.14, -22.67 95.17 02/24/2024 09:41:20 81.14, -22.83 95.16 2.77 59
34 02/24/2024 10:31:07 -81.14, 144.65 84.85 02/24/2024 10:32:04 -81.13, 144.81 84.91 2.73 57
35 02/24/2024 11:21:52 81.14, -48.05 95.14 02/24/2024 11:22:49 81.13, -47.86 95.08 3.22 57
36 02/24/2024 12:12:38 -81.14, 119.27 84.88 02/24/2024 12:13:34 -81.13, 119.40 84.93 2.11 56
37 02/24/2024 13:03:23 81.14, -73.43 95.12 02/24/2024 13:04:19 81.13, -73.28 95.06 2.59 56
38 02/24/2024 13:54:09 -81.14, 93.90 84.90 02/24/2024 13:55:04 -81.14, 93.98 84.95 1.50 55
39 02/24/2024 14:44:54 81.14, -98.81 95.09 02/24/2024 14:45:49 81.13, -98.69 95.04 1.96 55
40 02/24/2024 15:35:40 -81.14, 68.52 84.93 02/24/2024 15:36:34 -81.14, 68.57 84.97 0.90 54
41 02/24/2024 16:26:25 81.14,-124.19 95.07 02/24/2024 16:27:19 81.14,-124.11 95.02 1.33 54
42 02/24/2024 17:17:11 -81.14, 43.14 84.96 02/24/2024 17:18:04 -81.14, 43.15 84.99 0.33 53
43 02/24/2024 18:07:56 81.14,-149.56 95.04 02/24/2024 18:08:49 81.14,-149.52 95.00 0.73 53
44 02/24/2024 18:58:42 -81.14, 17.76 84.98 02/24/2024 18:59:34 -81.14, 17.74 85.01 0.42 52
45 02/24/2024 19:49:27 81.14,-174.94 95.01 02/24/2024 19:50:19 81.14,-174.94 94.98 0.29 52
46 02/24/2024 20:40:13 -81.14, -7.62 85.01 02/24/2024 20:41:04 -81.14, -7.67 85.03 1.00 51
47 02/24/2024 21:30:58 81.14, 159.68 94.99 02/24/2024 21:31:49 81.14, 159.65 94.96 0.67 51
48 02/24/2024 22:21:44 -81.14, -33.00 85.03 02/24/2024 22:22:34 -81.14, -33.09 85.05 1.61 50
49 02/24/2024 23:12:29 81.14, 134.30 94.96 02/24/2024 23:13:19 81.14, 134.23 94.94 1.27 50
50 02/25/2024 00:03:15 -81.14, -58.38 85.06 02/25/2024 00:04:04 -81.14, -58.50 85.07 2.22 49
51 02/25/2024 00:53:59 81.14, 108.92 94.93 02/25/2024 00:54:48 81.14, 108.82 94.92 1.89 49
52 02/25/2024 01:44:45 -81.14, -83.76 85.09 02/25/2024 01:45:33 -81.14, -83.92 85.09 2.83 48
53 02/25/2024 02:35:30 81.14, 83.54 94.91 02/25/2024 02:36:18 81.14, 83.40 94.90 2.52 48
54 02/25/2024 03:26:16 -81.14,-109.14 85.11 02/25/2024 03:27:02 -81.13,-108.95 85.16 3.17 46
55 02/25/2024 04:17:01 81.14, 58.16 94.88 02/25/2024 04:17:48 81.14, 57.98 94.88 3.15 47
56 02/25/2024 05:07:47 -81.14,-134.52 85.14 02/25/2024 05:08:32 -81.13,-134.37 85.18 2.57 45
57 02/25/2024 05:58:32 81.14, 32.78 94.86 02/25/2024 05:59:17 81.13, 32.95 94.81 2.88 45
58 02/25/2024 06:49:18 -81.14,-159.90 85.16 02/25/2024 06:50:02 -81.14,-159.78 85.20 1.96 44
59 02/25/2024 07:40:03 81.14, 7.40 94.83 02/25/2024 07:40:47 81.14, 7.53 94.79 2.26 44
60 02/25/2024 08:30:49 -81.14, 174.72 85.19 02/25/2024 08:31:32 -81.14, 174.80 85.23 1.37 43
61 02/25/2024 09:21:34 81.14, -17.98 94.80 02/25/2024 09:22:17 81.14, -17.88 94.77 1.65 43
62 02/25/2024 10:12:20 -81.14, 149.34 85.22 02/25/2024 10:13:02 -81.14, 149.39 85.25 0.80 42
63 02/25/2024 11:03:05 81.14, -43.36 94.78 02/25/2024 11:03:47 81.14, -43.30 94.75 1.06 42
64 02/25/2024 11:53:51 -81.14, 123.96 85.24 02/25/2024 11:54:32 -81.14, 123.97 85.27 0.42 41
65 02/25/2024 12:44:36 81.14, -68.74 94.75 02/25/2024 12:45:17 81.14, -68.71 94.73 0.57 41
66 02/25/2024 13:35:22 -81.14, 98.58 85.27 02/25/2024 13:36:02 -81.14, 98.56 85.29 0.68 40
67 02/25/2024 14:26:07 81.14, -94.12 94.72 02/25/2024 14:26:47 81.14, -94.13 94.71 0.58 40
68 02/25/2024 15:16:53 -81.14, 73.20 85.30 02/25/2024 15:17:32 -81.14, 73.14 85.31 1.22 39
69 02/25/2024 16:07:38 81.14,-119.50 94.70 02/25/2024 16:08:17 81.14,-119.55 94.69 1.07 39
70 02/25/2024 16:58:24 -81.14, 47.82 85.32 02/25/2024 16:59:02 -81.14, 47.73 85.33 1.81 38
71 02/25/2024 17:49:09 81.14,-144.88 94.67 02/25/2024 17:49:47 81.14,-144.96 94.67 1.66 38
72 02/25/2024 18:39:55 -81.14, 22.44 85.35 02/25/2024 18:40:32 -81.14, 22.31 85.35 2.41 37
73 02/25/2024 19:30:40 81.14,-170.26 94.65 02/25/2024 19:31:17 81.14,-170.38 94.65 2.27 37
74 02/25/2024 20:21:25 -81.14, -2.55 85.42 02/25/2024 20:22:01 -81.13, -2.72 85.42 2.98 36
75 02/25/2024 21:12:10 81.14, 164.75 94.57 02/25/2024 21:12:46 81.13, 164.59 94.57 2.84 36
76 02/25/2024 22:02:57 -81.14, -28.32 85.40 02/25/2024 22:03:31 -81.14, -28.14 85.44 3.06 34
77 02/25/2024 22:53:42 81.14, 138.98 94.59 02/25/2024 22:54:16 81.14, 139.17 94.55 3.21 34
78 02/25/2024 23:44:28 -81.14, -53.70 85.43 02/25/2024 23:45:01 -81.14, -53.55 85.46 2.46 33
79 02/26/2024 00:35:13 81.14, 113.60 94.57 02/26/2024 00:35:46 81.14, 113.75 94.53 2.60 33
80 02/26/2024 01:25:59 -81.14, -79.08 85.45 02/26/2024 01:26:31 -81.14, -78.97 85.48 1.88 32
81 02/26/2024 02:16:44 81.14, 88.22 94.54 02/26/2024 02:17:16 81.14, 88.34 94.51 2.00 32
82 02/26/2024 03:07:30 -81.14,-104.46 85.48 02/26/2024 03:08:01 -81.14,-104.39 85.50 1.32 31
83 02/26/2024 03:58:15 81.14, 62.84 94.51 02/26/2024 03:58:46 81.14, 62.92 94.49 1.42 31
84 02/26/2024 04:49:01 -81.14,-129.84 85.51 02/26/2024 04:49:31 -81.14,-129.80 85.53 0.84 30
85 02/26/2024 05:39:46 81.14, 37.46 94.49 02/26/2024 05:40:16 81.14, 37.51 94.47 0.93 30
86 02/26/2024 06:30:32 -81.14,-155.22 85.53 02/26/2024 06:31:01 -81.14,-155.22 85.55 0.65 29
87 02/26/2024 07:21:17 81.14, 12.08 94.46 02/26/2024 07:21:46 81.14, 12.09 94.45 0.70 29
88 02/26/2024 08:12:03 -81.14, 179.40 85.56 02/26/2024 08:12:31 -81.14, 179.37 85.57 0.94 28
89 02/26/2024 09:02:48 81.14, -13.30 94.44 02/26/2024 09:03:16 81.14, -13.33 94.43 0.96 28
90 02/26/2024 09:53:33 -81.14, 154.40 85.63 02/26/2024 09:54:00 -81.13, 154.33 85.64 1.41 27
91 02/26/2024 10:44:18 81.14, -38.29 94.36 02/26/2024 10:44:45 81.13, -38.36 94.35 1.37 27
92 02/26/2024 11:35:04 -81.14, 129.02 85.66 02/26/2024 11:35:30 -81.13, 128.92 85.66 1.90 26
93 02/26/2024 12:25:49 81.14, -63.67 94.33 02/26/2024 12:26:15 81.13, -63.78 94.33 1.89 26
94 02/26/2024 13:16:35 -81.14, 103.64 85.69 02/26/2024 13:17:00 -81.14, 103.50 85.68 2.44 25
95 02/26/2024 14:07:20 81.14, -89.06 94.31 02/26/2024 14:07:45 81.14, -89.20 94.31 2.45 25
96 02/26/2024 14:58:06 -81.14, 78.26 85.71 02/26/2024 14:58:30 -81.14, 78.08 85.70 3.01 24
97 02/26/2024 15:48:51 81.14,-114.44 94.28 02/26/2024 15:49:15 81.14,-114.61 94.29 3.05 24
98 02/26/2024 16:39:38 -81.14, 52.49 85.69 02/26/2024 16:40:00 -81.14, 52.67 85.72 3.00 22
99 02/26/2024 17:30:23 81.14,-140.20 94.30 02/26/2024 17:30:45 81.14,-140.03 94.27 2.97 22
100 02/26/2024 18:21:09 -81.14, 27.11 85.72 02/26/2024 18:21:30 -81.14, 27.25 85.74 2.43 21
101 02/26/2024 19:11:54 81.14,-165.58 94.28 02/26/2024 19:12:15 81.14,-165.45 94.25 2.38 21
102 02/26/2024 20:02:40 -81.14, 1.73 85.74 02/26/2024 20:03:00 -81.14, 1.84 85.76 1.88 20
103 02/26/2024 20:53:25 81.14, 169.04 94.25 02/26/2024 20:53:45 81.14, 169.14 94.23 1.82 20
104 02/26/2024 21:44:11 -81.14, -23.65 85.77 02/26/2024 21:44:30 -81.14, -23.58 85.78 1.38 19
105 02/26/2024 22:34:56 81.14, 143.65 94.23 02/26/2024 22:35:15 81.14, 143.72 94.21 1.33 19
106 02/26/2024 23:25:41 -81.14, -48.65 85.84 02/26/2024 23:25:59 -81.13, -48.62 85.86 0.97 18
107 02/27/2024 00:16:26 81.14, 118.66 94.15 02/27/2024 00:16:44 81.13, 118.68 94.13 0.87 18
108 02/27/2024 01:07:12 -81.14, -74.03 85.87 02/27/2024 01:07:29 -81.13, -74.03 85.88 0.69 17
109 02/27/2024 01:57:57 81.14, 93.28 94.12 02/27/2024 01:58:14 81.13, 93.27 94.11 0.66 17
110 02/27/2024 02:48:43 -81.14, -99.41 85.90 02/27/2024 02:48:59 -81.13, -99.45 85.90 0.86 16
111 02/27/2024 03:39:28 81.14, 67.90 94.10 02/27/2024 03:39:44 81.13, 67.85 94.09 0.95 16
112 02/27/2024 04:30:13 -81.14,-124.79 85.92 02/27/2024 04:30:28 -81.14,-124.86 85.92 1.32 15
113 02/27/2024 05:20:58 81.14, 42.52 94.07 02/27/2024 05:21:13 81.14, 42.43 94.07 1.47 15
114 02/27/2024 06:11:44 -81.14,-150.17 85.95 02/27/2024 06:11:58 -81.14,-150.28 85.94 1.87 14
115 02/27/2024 07:02:29 81.14, 17.13 94.04 02/27/2024 07:02:43 81.14, 17.01 94.05 2.05 14
116 02/27/2024 07:53:15 -81.14,-175.55 85.97 02/27/2024 07:53:28 -81.14,-175.70 85.96 2.44 13
117 02/27/2024 08:44:00 81.14, -8.25 94.02 02/27/2024 08:44:13 81.14, -8.40 94.03 2.65 13
118 02/27/2024 09:34:46 -81.14, 159.06 86.00 02/27/2024 09:34:58 -81.14, 158.89 85.98 3.03 12
119 02/27/2024 10:25:31 81.14, -33.63 93.99 02/27/2024 10:25:43 81.14, -33.82 94.01 3.26 12
120 02/27/2024 11:16:18 -81.14, 133.30 85.98 02/27/2024 11:16:28 -81.14, 133.47 86.00 3.01 10
121 02/27/2024 12:07:03 81.14, -59.40 94.02 02/27/2024 12:07:13 81.14, -59.24 93.99 2.81 10
122 02/27/2024 12:57:48 -81.14, 108.30 86.05 02/27/2024 12:57:57 -81.13, 108.43 86.08 2.45 9
123 02/27/2024 13:48:33 81.14, -84.39 93.94 02/27/2024 13:48:42 81.13, -84.27 93.91 2.20 9
124 02/27/2024 14:39:19 -81.14, 82.92 86.08 02/27/2024 14:39:27 -81.13, 83.02 86.10 1.86 8
125 02/27/2024 15:30:04 81.14,-109.77 93.91 02/27/2024 15:30:12 81.13,-109.69 93.89 1.59 8
126 02/27/2024 16:20:50 -81.14, 57.54 86.11 02/27/2024 16:20:57 -81.13, 57.60 86.12 1.27 7
127 02/27/2024 17:11:35 81.14,-135.16 93.89 02/27/2024 17:11:42 81.13,-135.11 93.87 0.99 7
128 02/27/2024 18:02:21 -81.14, 32.15 86.13 02/27/2024 18:02:27 -81.13, 32.18 86.14 0.71 6
129 02/27/2024 18:53:06 81.14,-160.54 93.86 02/27/2024 18:53:12 81.13,-160.53 93.85 0.47 6
130 02/27/2024 19:43:52 -81.14, 6.77 86.16 02/27/2024 19:43:57 -81.14, 6.77 86.16 0.37 5
131 02/27/2024 20:34:37 81.14, 174.08 93.83 02/27/2024 20:34:42 81.14, 174.06 93.83 0.49 5
132 02/27/2024 21:25:23 -81.14, -18.61 86.18 02/27/2024 21:25:27 -81.14, -18.65 86.18 0.71 4
133 02/27/2024 22:16:08 81.14, 148.70 93.81 02/27/2024 22:16:12 81.14, 148.64 93.81 1.02 4
134 02/27/2024 23:06:54 -81.14, -43.99 86.21 02/27/2024 23:06:57 -81.14, -44.07 86.20 1.26 3
135 02/27/2024 23:57:39 81.14, 123.32 93.78 02/27/2024 23:57:42 81.14, 123.22 93.79 1.62 3
136 02/28/2024 00:48:25 -81.14, -69.38 86.24 02/28/2024 00:48:27 -81.14, -69.48 86.22 1.85 2
137 02/28/2024 01:39:10 81.14, 97.93 93.76 02/28/2024 01:39:12 81.14, 97.80 93.77 2.23 2
138 02/28/2024 02:29:56 -81.14, -94.76 86.26 02/28/2024 02:29:57 -81.14, -94.90 86.24 2.44 1
139 02/28/2024 03:20:41 81.14, 72.55 93.73 02/28/2024 03:20:42 81.14, 72.39 93.75 2.85 1
140 02/28/2024 04:11:27 -81.14,-120.14 86.29 02/28/2024 04:11:27 -81.14,-120.32 86.26 3.04 0
141 02/28/2024 05:02:12 81.14, 47.17 93.70 02/28/2024 05:02:11 81.13, 47.35 93.68 3.16 1
142 02/28/2024 05:52:58 -81.14,-145.52 86.32 02/28/2024 05:52:56 -81.13,-145.36 86.34 2.97 2
143 02/28/2024 06:43:43 81.14, 21.79 93.68 02/28/2024 06:43:41 81.13, 21.93 93.66 2.54 2
144 02/28/2024 07:34:29 -81.14,-170.91 86.34 02/28/2024 07:34:26 -81.13,-170.77 86.36 2.36 3
145 02/28/2024 08:25:14 81.14, -3.60 93.65 02/28/2024 08:25:11 81.13, -3.49 93.63 1.92 3
146 02/28/2024 09:16:00 -81.14, 163.71 86.37 02/28/2024 09:15:56 -81.13, 163.81 86.38 1.76 4
147 02/28/2024 10:06:45 81.14, -28.98 93.62 02/28/2024 10:06:41 81.13, -28.91 93.61 1.29 4
148 02/28/2024 10:57:31 -81.14, 138.33 86.40 02/28/2024 10:57:26 -81.14, 138.39 86.40 1.16 5
149 02/28/2024 11:48:16 81.14, -54.36 93.60 02/28/2024 11:48:11 81.14, -54.32 93.59 0.67 5
150 02/28/2024 12:39:02 -81.14, 112.95 86.42 02/28/2024 12:38:56 -81.14, 112.98 86.42 0.56 6
151 02/28/2024 13:29:47 81.14, -79.74 93.57 02/28/2024 13:29:41 81.14, -79.74 93.57 0.07 6
152 02/28/2024 14:20:33 -81.14, 87.56 86.45 02/28/2024 14:20:26 -81.14, 87.56 86.44 0.05 7
153 02/28/2024 15:11:18 81.14,-105.13 93.54 02/28/2024 15:11:11 81.14,-105.16 93.55 0.58 7
154 02/28/2024 16:02:04 -81.14, 62.18 86.47 02/28/2024 16:01:56 -81.14, 62.14 86.46 0.65 8
155 02/28/2024 16:52:49 81.14,-130.51 93.52 02/28/2024 16:52:41 81.14,-130.58 93.53 1.20 8
156 02/28/2024 17:43:35 -81.14, 36.80 86.50 02/28/2024 17:43:26 -81.14, 36.73 86.48 1.25 9
157 02/28/2024 18:34:20 81.14,-155.89 93.49 02/28/2024 18:34:11 81.14,-156.00 93.51 1.82 9
158 02/28/2024 19:25:06 -81.14, 11.41 86.53 02/28/2024 19:24:56 -81.14, 11.31 86.51 1.85 10
159 02/28/2024 20:15:51 81.14, 178.73 93.47 02/28/2024 20:15:41 81.14, 178.59 93.49 2.44 10
160 02/28/2024 21:06:37 -81.14, -13.97 86.55 02/28/2024 21:06:26 -81.14, -14.11 86.53 2.45 11
161 02/28/2024 21:57:22 81.14, 153.34 93.44 02/28/2024 21:57:11 81.14, 153.17 93.47 3.06 11
162 02/28/2024 22:48:08 -81.14, -39.35 86.58 02/28/2024 22:47:56 -81.14, -39.53 86.55 3.05 12
163 02/28/2024 23:38:53 81.14, 127.96 93.41 02/28/2024 23:38:40 81.13, 128.13 93.40 2.95 13
164 02/29/2024 00:29:39 -81.14, -64.74 86.61 02/29/2024 00:29:25 -81.13, -64.57 86.62 2.95 14
165 02/29/2024 01:20:24 81.14, 102.58 93.39 02/29/2024 01:20:10 81.14, 102.71 93.37 2.33 14
166 02/29/2024 02:11:10 -81.14, -90.12 86.63 02/29/2024 02:10:55 -81.14, -89.98 86.64 2.35 15
167 02/29/2024 03:01:55 81.14, 77.19 93.36 02/29/2024 03:01:40 81.14, 77.29 93.35 1.72 15
168 02/29/2024 03:52:41 -81.14,-115.50 86.66 02/29/2024 03:52:25 -81.14,-115.40 86.66 1.76 16
169 02/29/2024 04:43:26 81.14, 51.81 93.33 02/29/2024 04:43:10 81.14, 51.87 93.33 1.11 16
170 02/29/2024 05:34:12 -81.14,-140.89 86.68 02/29/2024 05:33:55 -81.14,-140.82 86.68 1.18 17
171 02/29/2024 06:24:57 81.14, 26.43 93.31 02/29/2024 06:24:40 81.14, 26.46 93.31 0.54 17
172 02/29/2024 07:15:42 -81.14,-166.27 86.71 02/29/2024 07:15:24 -81.14,-166.24 86.70 0.64 18
173 02/29/2024 08:06:27 81.14, 1.04 93.28 02/29/2024 08:06:09 81.14, 1.04 93.29 0.36 18
174 02/29/2024 08:57:13 -81.14, 168.35 86.74 02/29/2024 08:56:54 -81.14, 168.35 86.73 0.36 19
175 02/29/2024 09:47:58 81.14, -24.34 93.25 02/29/2024 09:47:39 81.14, -24.38 93.27 0.85 19
176 02/29/2024 10:38:44 -81.14, 142.96 86.76 02/29/2024 10:38:24 -81.14, 142.93 86.75 0.76 20
177 02/29/2024 11:29:29 81.14, -49.72 93.23 02/29/2024 11:29:09 81.14, -49.80 93.25 1.45 20
178 02/29/2024 12:20:15 -81.14, 117.58 86.79 02/29/2024 12:19:54 -81.14, 117.51 86.77 1.31 21
179 02/29/2024 13:11:00 81.14, -75.11 93.20 02/29/2024 13:10:39 81.14, -75.22 93.23 2.06 21
180 02/29/2024 14:01:46 -81.14, 92.19 86.82 02/29/2024 14:01:24 -81.14, 92.09 86.79 1.90 22
181 02/29/2024 14:52:31 81.14,-100.49 93.18 02/29/2024 14:52:09 81.15,-100.64 93.21 2.67 22
182 02/29/2024 15:43:17 -81.14, 66.81 86.84 02/29/2024 15:42:54 -81.15, 66.68 86.81 2.49 23
183 02/29/2024 16:34:01 81.14,-125.49 93.10 02/29/2024 16:33:38 81.14,-125.68 93.14 3.24 23
184 02/29/2024 17:24:47 -81.14, 41.81 86.92 02/29/2024 17:24:23 -81.14, 41.64 86.88 3.03 24
185 02/29/2024 18:15:33 81.14,-151.26 93.12 02/29/2024 18:15:08 81.14,-151.10 93.11 2.81 25
186 02/29/2024 19:06:19 -81.14, 16.04 86.90 02/29/2024 19:05:53 -81.14, 16.22 86.90 3.02 26
187 02/29/2024 19:57:04 81.14,-176.64 93.10 02/29/2024 19:56:38 81.14,-176.51 93.09 2.21 26
188 02/29/2024 20:47:50 -81.14, -9.34 86.92 02/29/2024 20:47:23 -81.14, -9.20 86.93 2.45 27
189 02/29/2024 21:38:35 81.14, 157.97 93.07 02/29/2024 21:38:08 81.14, 158.07 93.07 1.64 27
190 02/29/2024 22:29:21 -81.14, -34.73 86.95 02/29/2024 22:28:53 -81.14, -34.62 86.95 1.89 28
191 02/29/2024 23:20:06 81.14, 132.59 93.04 02/29/2024 23:19:38 81.14, 132.65 93.05 1.11 28
192 03/01/2024 00:10:52 -81.14, -60.11 86.97 03/01/2024 00:10:23 -81.14, -60.04 86.97 1.37 29
193 03/01/2024 01:01:37 81.14, 107.21 93.02 03/01/2024 01:01:08 81.14, 107.23 93.03 0.74 29
194 03/01/2024 01:52:23 -81.14, -85.50 87.00 03/01/2024 01:51:53 -81.14, -85.45 86.99 0.94 30
195 03/01/2024 02:43:08 81.14, 81.82 92.99 03/01/2024 02:42:38 81.14, 81.81 93.01 0.79 30
196 03/01/2024 03:33:54 -81.14,-110.88 87.03 03/01/2024 03:33:23 -81.14,-110.87 87.01 0.77 31
197 03/01/2024 04:24:38 81.14, 56.82 92.91 03/01/2024 04:24:07 81.13, 56.77 92.94 1.12 31
198 03/01/2024 05:15:24 -81.14,-135.88 87.10 03/01/2024 05:14:52 -81.13,-135.91 87.08 0.89 32
199 03/01/2024 06:06:09 81.14, 31.44 92.89 03/01/2024 06:05:37 81.14, 31.35 92.92 1.58 32
200 03/01/2024 06:56:55 -81.14,-161.27 87.13 03/01/2024 06:56:22 -81.13,-161.33 87.10 1.25 33
201 03/01/2024 07:47:40 81.14, 6.05 92.86 03/01/2024 07:47:07 81.14, 5.93 92.89 2.12 33
202 03/01/2024 08:38:26 -81.14, 173.35 87.16 03/01/2024 08:37:52 -81.14, 173.25 87.13 1.75 34
203 03/01/2024 09:29:11 81.14, -19.33 92.84 03/01/2024 09:28:37 81.14, -19.49 92.87 2.69 34
204 03/01/2024 10:19:57 -81.14, 147.97 87.18 03/01/2024 10:19:22 -81.14, 147.83 87.15 2.29 35
205 03/01/2024 11:10:42 81.14, -44.72 92.81 03/01/2024 11:10:07 81.14, -44.91 92.85 3.28 35
206 03/01/2024 12:01:28 -81.14, 122.58 87.21 03/01/2024 12:00:52 -81.14, 122.41 87.17 2.86 36
207 03/01/2024 12:52:14 81.14, -70.49 92.83 03/01/2024 12:51:37 81.14, -70.33 92.83 2.77 37
208 03/01/2024 13:43:00 -81.14, 96.81 87.19 03/01/2024 13:42:22 -81.14, 97.00 87.19 3.18 38
209 03/01/2024 14:33:45 81.14, -95.87 92.81 03/01/2024 14:33:07 81.14, -95.75 92.81 2.22 38
210 03/01/2024 15:24:31 -81.14, 71.43 87.21 03/01/2024 15:23:52 -81.14, 71.58 87.21 2.64 39
211 03/01/2024 16:15:15 81.14,-120.87 92.73 03/01/2024 16:14:36 81.13,-120.79 92.74 1.67 39
212 03/01/2024 17:06:01 -81.14, 46.43 87.29 03/01/2024 17:05:21 -81.13, 46.54 87.28 2.08 40
213 03/01/2024 17:56:46 81.14,-146.25 92.70 03/01/2024 17:56:06 81.13,-146.20 92.72 1.09 40
214 03/01/2024 18:47:32 -81.14, 21.04 87.31 03/01/2024 18:46:51 -81.13, 21.12 87.30 1.50 41
215 03/01/2024 19:38:17 81.14,-171.64 92.68 03/01/2024 19:37:36 81.13,-171.62 92.70 0.59 41
216 03/01/2024 20:29:03 -81.14, -4.34 87.34 03/01/2024 20:28:21 -81.13, -4.30 87.32 0.93 42
217 03/01/2024 21:19:48 81.14, 162.98 92.65 03/01/2024 21:19:06 81.14, 162.96 92.68 0.52 42
218 03/01/2024 22:10:34 -81.14, -29.73 87.37 03/01/2024 22:09:51 -81.14, -29.72 87.35 0.44 43
219 03/01/2024 23:01:19 81.14, 137.59 92.62 03/01/2024 23:00:36 81.14, 137.54 92.65 0.97 43
220 03/01/2024 23:52:05 -81.14, -55.12 87.39 03/01/2024 23:51:21 -81.14, -55.14 87.37 0.47 44
221 03/02/2024 00:42:50 81.14, 112.21 92.60 03/02/2024 00:42:06 81.14, 112.12 92.63 1.54 44
222 03/02/2024 01:33:36 -81.14, -80.50 87.42 03/02/2024 01:32:51 -81.14, -80.56 87.39 0.98 45



Historial Predications of SNOs between FY3D and NOAA-20
